Location: Boiro
(42.6475°N, 8.8834°W)
Time: 04:46:43
(UTC+01:00)

Transit 4A - Pass Details

Date: 04 December 2021
Orbit: 864 x 980 km, 66.8° (Epoch: 17 January)

Event Time Altitude Azimuth Distance (km) Brightness Sun altitude
Exits shadow 06:04:56 70° 191° (S) 1,027 7.9 -29.5°
Drops below altitude 10° 06:10:41 10° 157° (SSE) 2,720 10.6 -28.4°
Sets 06:13:15 0° 156° (SSE) 3,667 11.4 -27.9°
